Pampa, TX

1:04 PM CST on December 16, 2017 (GMT -0600)
Perry Lefors

Weather History for KPPA - December, 2012

Change the Weather History Date:

Wednesday, December 19, 2012

  Actual Average Record
Temperature  
Mean Temperature 46 °F -  
Max Temperature 66 °F 51 °F 72 °F (1978)
Min Temperature 26 °F 24 °F 3 °F (1983)
Degree Days  
Heating Degree Days 19    
Moisture  
Dew Point 24 °F    
Average Humidity 51    
Maximum Humidity 75    
Minimum Humidity 17    
Precipitation  
Precipitation 0.00 in - - ()
Sea Level Pressure  
Sea Level Pressure 29.67 in    
Wind  
Wind Speed 17 mph (WSW)    
Max Wind Speed 41 mph    
Max Gust Speed 54 mph    
Visibility 9 miles    
Events      
Averages and records for this station are not official NWS values.
T = Trace of Precipitation, MM = Missing Value Source: NWS Daily Summary

Daily Weather History Graph

Daily Weather History Graph

Search for Another Location

Airport or City:

Trip Planner

Search our weather history database for the weather conditions in past years. The results will help you decide how hot, cold, wet, or windy it might be!

Date:

Astronomy

Dec. 19, 2012 Rise Set
Actual Time 7:48 AM CST 5:33 PM CST
Civil Twilight 7:20 AM CST 6:02 PM CST
Nautical Twilight 6:48 AM CST 6:34 PM CST
Astronomical Twilight 6:17 AM CST 7:05 PM CST
Moon 12:12 PM CST (12/19) No Moon Set
Length of Visible Light 10h 41m
Length of Day
9h 44m
Waxing Crescent, 45% of the Moon is Illuminated
Dec 19
Waxing Crescent
Dec 19
First Quarter
Dec 28
Full
Jan 4
Last Quarter
Jan 11
New

Hourly Weather History & Observations

Time (CST) Temp. Windchill Dew Point Humidity Pressure Visibility Wind Dir Wind Speed Gust Speed Precip Events Conditions
12:15 AM 41.0 °F 35.2 °F 26.6 °F 57% 29.74 in 10.0 mi SSE 9.2 mph - N/A   Clear
12:35 AM 41.0 °F 35.2 °F 26.6 °F 57% 29.73 in 10.0 mi SSE 9.2 mph - N/A   Clear
12:55 AM 41.0 °F 35.2 °F 26.6 °F 57% 29.72 in 10.0 mi SE 9.2 mph - N/A   Clear
1:15 AM 41.0 °F 35.2 °F 26.6 °F 57% 29.71 in 10.0 mi SSE 9.2 mph - N/A   Clear
1:35 AM 41.0 °F 34.7 °F 26.6 °F 57% 29.70 in 10.0 mi SE 10.4 mph - N/A   Clear
1:55 AM 41.0 °F 35.2 °F 26.6 °F 57% 29.69 in 10.0 mi SE 9.2 mph - N/A   Clear
2:15 AM 41.0 °F 36.4 °F 26.6 °F 57% 29.69 in 10.0 mi SSE 6.9 mph - N/A   Clear
2:35 AM 41.0 °F 35.2 °F 26.6 °F 57% 29.67 in 10.0 mi SSE 9.2 mph - N/A   Clear
2:55 AM 41.0 °F 36.4 °F 26.6 °F 57% 29.67 in 10.0 mi SSE 6.9 mph - N/A   Clear
3:15 AM 42.8 °F 37.5 °F 26.6 °F 53% 29.65 in 10.0 mi SSE 9.2 mph - N/A   Clear
3:35 AM 42.8 °F 37.0 °F 26.6 °F 53% 29.64 in 10.0 mi SSE 10.4 mph - N/A   Clear
3:55 AM 42.8 °F 36.2 °F 26.6 °F 53% 29.64 in 10.0 mi SSE 12.7 mph - N/A   Scattered Clouds
4:15 AM 42.8 °F 35.8 °F 26.6 °F 53% 29.63 in 10.0 mi South 13.8 mph - N/A   Mostly Cloudy
4:35 AM 42.8 °F 37.0 °F 28.4 °F 57% 29.62 in 10.0 mi South 10.4 mph - N/A   Scattered Clouds
4:55 AM 42.8 °F 38.6 °F 28.4 °F 57% 29.61 in 10.0 mi South 6.9 mph - N/A   Clear
5:15 AM 42.8 °F 39.3 °F 28.4 °F 57% 29.61 in 10.0 mi South 5.8 mph - N/A   Clear
5:35 AM 42.8 °F 37.5 °F 28.4 °F 57% 29.61 in 10.0 mi South 9.2 mph - N/A   Clear
5:55 AM 42.8 °F 36.6 °F 28.4 °F 57% 29.59 in 10.0 mi South 11.5 mph - N/A   Clear
6:15 AM 42.8 °F 36.6 °F 28.4 °F 57% 29.59 in 10.0 mi South 11.5 mph - N/A   Clear
6:35 AM 42.8 °F 37.0 °F 28.4 °F 57% 29.60 in 10.0 mi SSW 10.4 mph - N/A   Clear
6:55 AM 42.8 °F 37.0 °F 28.4 °F 57% 29.59 in 10.0 mi SSW 10.4 mph - N/A   Clear
7:15 AM 42.8 °F 37.0 °F 28.4 °F 57% 29.58 in 10.0 mi South 10.4 mph - N/A   Clear
7:35 AM 42.8 °F 37.0 °F 28.4 °F 57% 29.58 in 10.0 mi SSW 10.4 mph - N/A   Clear
7:55 AM 42.8 °F 38.0 °F 28.4 °F 57% 29.58 in 10.0 mi SSW 8.1 mph - N/A   Clear
8:15 AM 42.8 °F 37.0 °F 28.4 °F 57% 29.58 in 10.0 mi SSW 10.4 mph - N/A   Clear
8:35 AM 42.8 °F 36.6 °F 28.4 °F 57% 29.57 in 10.0 mi SSW 11.5 mph - N/A   Clear
8:55 AM 44.6 °F 38.1 °F 28.4 °F 53% 29.56 in 10.0 mi SSW 13.8 mph - N/A   Clear
9:15 AM 44.6 °F 39.2 °F 28.4 °F 53% 29.57 in 10.0 mi SSW 10.4 mph - N/A   Clear
9:35 AM 44.6 °F 38.4 °F 28.4 °F 53% 29.57 in 10.0 mi SSW 12.7 mph - N/A   Clear
9:55 AM 46.4 °F 40.7 °F 28.4 °F 50% 29.57 in 10.0 mi SW 12.7 mph 18.4 mph N/A   Clear
10:15 AM 46.4 °F 40.7 °F 26.6 °F 46% 29.56 in 10.0 mi SW 12.7 mph - N/A   Clear
10:35 AM 50.0 °F - 24.8 °F 37% 29.56 in 10.0 mi SSW 19.6 mph - N/A   Clear
10:55 AM 50.0 °F - 24.8 °F 37% 29.54 in 10.0 mi SSW 17.3 mph - N/A   Clear
11:15 AM 53.6 °F - 23.0 °F 30% 29.52 in 10.0 mi SSW 23.0 mph - N/A   Clear
11:35 AM 55.4 °F - 21.2 °F 26% 29.52 in 10.0 mi SW 24.2 mph 29.9 mph N/A   Clear
11:55 AM 60.8 °F - 21.2 °F 22% 29.52 in 10.0 mi SW 24.2 mph 31.1 mph N/A   Clear
12:15 PM 62.6 °F - 21.2 °F 20% 29.50 in 10.0 mi SW 24.2 mph 32.2 mph N/A   Clear
12:35 PM 64.4 °F - 19.4 °F 18% 29.48 in 10.0 mi WSW 34.5 mph 41.4 mph N/A   Clear
12:55 PM 66.2 °F - 19.4 °F 17% 29.46 in 10.0 mi WSW 33.4 mph 40.3 mph N/A   Clear
1:15 PM 66.2 °F - 21.2 °F 18% 29.46 in 10.0 mi WSW 29.9 mph 43.7 mph N/A   Clear
1:35 PM 66.2 °F - 21.2 °F 18% 29.46 in 7.0 mi West 38.0 mph 43.7 mph N/A   Scattered Clouds
1:55 PM 64.4 °F - 23.0 °F 21% 29.46 in 10.0 mi West 33.4 mph 43.7 mph N/A   Scattered Clouds
2:15 PM 64.4 °F - 23.0 °F 21% 29.45 in 7.0 mi WSW 35.7 mph 42.6 mph N/A   Clear
2:35 PM 62.6 °F - 24.8 °F 24% 29.45 in 10.0 mi West 36.8 mph 43.7 mph N/A   Clear
2:55 PM 62.6 °F - 26.6 °F 26% 29.45 in 7.0 mi West 29.9 mph 41.4 mph N/A   Scattered Clouds
3:15 PM 48.2 °F - 19.4 °F 32% 29.51 in 1.2 mi NNW 28.8 mph 48.3 mph N/A   Haze
3:35 PM 44.6 °F 34.6 °F 15.8 °F 31% 29.54 in 5.0 mi NNW 31.1 mph 39.1 mph N/A   Haze
3:55 PM 42.8 °F 32.9 °F 17.6 °F 36% 29.58 in 10.0 mi NW 26.5 mph 33.4 mph N/A   Overcast
4:15 PM 42.8 °F 33.1 °F 17.6 °F 36% 29.59 in 10.0 mi NW 25.3 mph 33.4 mph N/A   Mostly Cloudy
4:35 PM 41.0 °F 30.5 °F 15.8 °F 36% 29.63 in 10.0 mi NW 26.5 mph 38.0 mph N/A   Mostly Cloudy
4:55 PM 39.2 °F 29.0 °F 15.8 °F 39% 29.64 in 10.0 mi NW 21.9 mph 31.1 mph N/A   Mostly Cloudy
5:15 PM 37.4 °F 25.0 °F 17.6 °F 45% 29.68 in 7.0 mi NW 29.9 mph 42.6 mph N/A   Overcast
5:35 PM 32.0 °F 17.0 °F 21.2 °F 64% 29.71 in 7.0 mi NW 33.4 mph 42.6 mph N/A   Mostly Cloudy
5:55 PM 32.0 °F 16.5 °F 21.2 °F 64% 29.73 in 10.0 mi NW 35.7 mph 44.9 mph N/A   Scattered Clouds
6:15 PM 32.0 °F 16.7 °F 23.0 °F 69% 29.75 in 7.0 mi NW 34.5 mph 44.9 mph N/A   Mostly Cloudy
6:35 PM 32.0 °F 16.5 °F 23.0 °F 69% 29.77 in 10.0 mi NW 35.7 mph 44.9 mph N/A   Overcast
6:55 PM 30.2 °F 14.7 °F 23.0 °F 75% 29.79 in 10.0 mi NW 32.2 mph 43.7 mph N/A   Overcast
7:15 PM 30.2 °F 14.5 °F 21.2 °F 69% 29.81 in 5.0 mi NNW 33.4 mph 52.9 mph N/A   Haze
7:35 PM 30.2 °F 14.3 °F 21.2 °F 69% 29.84 in 7.0 mi NW 34.5 mph 48.3 mph N/A   Overcast
7:55 PM 28.4 °F 10.6 °F 21.2 °F 74% 29.85 in 3.0 mi NNW 41.4 mph 54.1 mph N/A   Haze
8:15 PM 28.4 °F 11.2 °F 21.2 °F 74% 29.87 in 5.0 mi NNW 38.0 mph 46.0 mph N/A   Haze
8:35 PM 28.4 °F 11.0 °F 21.2 °F 74% 29.90 in 4.0 mi NNW 39.1 mph 50.6 mph N/A   Haze
8:55 PM 28.4 °F 11.0 °F 21.2 °F 74% 29.92 in 5.0 mi NNW 39.1 mph 50.6 mph N/A   Haze
9:15 PM 28.4 °F 12.3 °F 19.4 °F 69% 29.94 in - NNW 32.2 mph - N/A   Unknown
9:35 PM 28.4 °F 11.6 °F 19.4 °F 69% 29.94 in 7.0 mi NNW 35.7 mph 51.8 mph N/A   Overcast
9:55 PM 28.4 °F 10.6 °F 19.4 °F 69% 29.95 in 7.0 mi NNW 41.4 mph 50.6 mph N/A   Overcast
10:15 PM 26.6 °F 8.3 °F 19.4 °F 74% 29.98 in 10.0 mi NNW 40.3 mph 44.9 mph N/A   Mostly Cloudy
10:35 PM 26.6 °F 8.7 °F 19.4 °F 74% 29.99 in 10.0 mi NNW 38.0 mph 48.3 mph N/A   Scattered Clouds
10:55 PM 28.4 °F 11.4 °F 19.4 °F 69% 30.01 in 10.0 mi NNW 36.8 mph 49.5 mph N/A   Mostly Cloudy
11:15 PM 26.6 °F 9.6 °F 19.4 °F 74% 30.03 in 10.0 mi NNW 33.4 mph 40.3 mph N/A   Overcast
11:35 PM 26.6 °F 8.9 °F 17.6 °F 69% 30.03 in 10.0 mi NNW 36.8 mph 44.9 mph N/A   Scattered Clouds